DW8722 Weather Reports


time (UTC)temp
C
wind
direction
speed
KPH
gust
KPH
rain 1hr
cm
rain 24hr
cm
rain mn
cm
humidity
%
barometer
mb
20260905034710 28 158 0.0 4.8 0.00 0.05 0.00 69 1012.2
20260905033703 28 150 0.0 1.6 0.00 0.05 0.00 68 1012.2
20260905032634 28 149 0.0 1.6 0.00 0.05 0.00 67 1012.3
20260905031604 28 157 0.0 3.2 0.00 0.05 0.00 67 1012.2
20260905030547 28 153 0.0 3.2 0.00 0.05 0.00 66 1012.2
20260905024407 29 136 0.0 0.0 0.00 0.05 0.00 64 1011.8
20260905023417 29 132 0.0 0.0 0.00 0.05 0.00 63 1011.9
20260905022409 30 132 0.0 0.0 0.00 0.05 0.00 62 1011.6
20260905021356 30 132 0.0 0.0 0.00 0.05 0.00 61 1011.4
20260905020357 30 132 0.0 0.0 0.00 0.05 0.00 61 1011.4
20260905015344 30 129 0.0 0.0 0.00 0.05 0.00 59 1011.4
20260905014401 31 126 0.0 0.0 0.00 0.05 0.00 58 1011.2
20260905013421 31 140 0.0 0.0 0.00 0.05 0.00 57 1011.0
20260905011310 32 142 0.0 6.4 0.00 0.05 0.00 54 1010.9
20260905010333 32 143 3.2 6.4 0.00 0.05 0.00 54 1010.8
20260905005338 33 135 3.2 11.3 0.00 0.05 0.00 52 1010.8
20260905004325 33 140 4.8 17.7 0.00 0.05 0.00 51 1010.7
20260905003326 33 124 8.0 17.7 0.00 0.05 0.00 50 1010.7
20260905002252 34 125 8.0 14.5 0.00 0.05 0.00 49 1010.6
20260904233941 36 161 4.8 16.1 0.00 0.05 0.00 45 1010.4
20260904232920 36 176 8.0 19.3 0.00 0.05 0.00 45 1010.4
20260904231923 36 168 11.3 19.3 0.00 0.05 0.00 45 1010.4
20260904230903 36 123 6.4 24.1 0.00 0.05 0.00 44 1010.3
20260904224757 36 136 8.0 17.7 0.00 0.05 0.00 44 1010.5
20260904223745 36 111 8.0 20.9 0.00 0.05 0.00 43 1010.5
20260904222713 37 118 11.3 20.9 0.00 0.05 0.00 43 1010.5
20260904221641 37 139 11.3 22.5 0.00 0.05 0.00 43 1010.5
20260904215517 37 178 9.7 25.7 0.00 0.05 0.00 42 1010.6
20260904214500 37 144 11.3 25.7 0.00 0.05 0.00 41 1010.9
20260904213514 37 215 11.3 22.5 0.00 0.05 0.00 42 1010.9
20260904212534 37 171 11.3 22.5 0.00 0.05 0.00 41 1010.9
20260904211509 37 203 8.0 22.5 0.00 0.05 0.00 42 1011.0
20260904210534 37 124 12.9 22.5 0.00 0.05 0.00 43 1011.1
20260904204412 36 188 6.4 17.7 0.00 0.05 0.00 45 1011.2
20260904203349 36 190 8.0 22.5 0.00 0.05 0.00 43 1011.4
20260904202322 36 132 8.0 22.5 0.00 0.05 0.00 44 1011.5
20260904201335 37 140 11.3 20.9 0.00 0.05 0.00 43 1011.7
20260904200359 36 147 9.7 17.7 0.00 0.05 0.00 44 1011.7
20260904195340 36 126 6.4 19.3 0.00 0.05 0.00 43 1011.9
20260904194341 36 197 9.7 22.5 0.00 0.05 0.00 43 1012.0
20260904192221 36 157 8.0 19.3 0.00 0.05 0.00 45 1012.2
20260904191220 36 181 9.7 20.9 0.00 0.05 0.00 46 1012.3
20260904190155 36 175 8.0 20.9 0.00 0.05 0.00 47 1012.5
20260904185137 35 186 8.0 24.1 0.00 0.05 0.00 48 1012.6
20260904184139 35 164 11.3 24.1 0.00 0.05 0.00 47 1012.8
20260904183147 35 113 4.8 20.9 0.00 0.05 0.00 48 1013.0
20260904180955 35 135 8.0 19.3 0.00 0.05 0.00 51 1013.3
20260904175942 35 180 6.4 17.7 0.00 0.05 0.00 53 1013.5
20260904174942 34 131 11.3 19.3 0.00 0.05 0.00 54 1013.5
20260904173956 33 147 3.2 19.3 0.00 0.05 0.00 55 1013.7
20260904173011 33 178 8.0 19.3 0.00 0.05 0.00 56 1013.8
20260904171948 33 185 11.3 19.3 0.00 0.05 0.00 56 1013.9
20260904164741 32 180 9.7 22.5 0.00 0.05 0.00 58 1014.2
20260904163729 32 227 9.7 22.5 0.00 0.05 0.00 60 1014.4
20260904162732 31 192 8.0 22.5 0.00 0.05 0.00 63 1014.4
20260904161707 31 196 6.4 22.5 0.00 0.05 0.00 64 1014.3
20260904160704 31 202 8.0 19.3 0.00 0.05 0.00 68 1014.3
20260904155656 30 211 8.0 14.5 0.00 0.05 0.00 68 1014.3
20260904153613 30 219 6.4 14.5 0.00 0.05 0.00 74 1014.1
20260904145239 28 151 8.0 17.7 0.00 0.05 0.00 79 1014.2
20260904144207 28 125 9.7 17.7 0.00 0.05 0.00 80 1014.2
20260904143148 28 167 11.3 17.7 0.00 0.05 0.00 81 1014.2
20260904142120 27 182 9.7 17.7 0.00 0.05 0.00 83 1014.2
20260904141143 27 162 9.7 19.3 0.00 0.05 0.00 84 1014.2
20260904140201 27 126 9.7 19.3 0.00 0.05 0.00 85 1014.2
20260904135149 27 171 9.7 16.1 0.00 0.05 0.00 86 1014.2
20260904134144 26 174 6.4 14.5 0.00 0.05 0.00 87 1014.1
20260904132038 26 153 8.0 16.1 0.00 0.05 0.00 89 1013.8
20260904131100 26 153 6.4 16.1 0.00 0.05 0.00 90 1013.8
20260904130116 25 147 4.8 11.3 0.00 0.05 0.00 90 1013.8
20260904125107 25 173 3.2 9.7 0.00 0.05 0.00 90 1013.8
20260904123006 24 136 1.6 11.3 0.00 0.05 0.00 90 1013.6
20260904121942 24 152 3.2 12.9 0.00 0.05 0.00 90 1013.5
20260904120945 24 147 3.2 12.9 0.00 0.05 0.00 90 1013.5
20260904120001 23 173 3.2 11.3 0.00 0.05 0.00 90 1013.4
20260904112705 23 129 3.2 11.3 0.00 0.05 0.00 90 1013.4
20260904111649 23 117 1.6 9.7 0.00 0.05 0.00 90 1013.3
20260904110711 23 144 1.6 12.9 0.00 0.05 0.00 89 1013.2
20260904105655 23 130 0.0 12.9 0.00 0.08 0.00 89 1013.1
20260904104701 23 153 0.0 3.2 0.00 0.08 0.00 89 1013.0
20260904102528 23 135 0.0 3.2 0.00 0.08 0.00 88 1012.9
20260904101512 23 134 1.6 4.8 0.00 0.10 0.00 88 1012.9
20260904100528 23 127 1.6 6.4 0.00 0.10 0.00 88 1012.8
20260904095540 23 128 4.8 6.4 0.00 0.10 0.00 88 1012.8
20260904094508 23 125 1.6 6.4 0.00 0.10 0.00 88 1012.8
20260904093438 23 123 0.0 4.8 0.00 0.10 0.00 87 1012.7
20260904092453 23 125 0.0 6.4 0.00 0.10 0.00 87 1012.8
20260904091446 23 129 3.2 6.4 0.00 0.10 0.00 87 1012.8
20260904090414 23 126 0.0 3.2 0.00 0.10 0.00 86 1012.8
20260904085429 23 138 0.0 0.0 0.00 0.10 0.00 86 1012.8
20260904084435 23 138 0.0 0.0 0.00 0.10 0.00 86 1012.7
20260904083440 23 138 0.0 0.0 0.00 0.10 0.00 86 1012.7
20260904082454 23 138 0.0 0.0 0.00 0.10 0.00 85 1012.7
20260904081454 23 138 0.0 0.0 0.00 0.10 0.00 85 1012.7
20260904080511 23 141 0.0 0.0 0.00 0.10 0.00 84 1012.6
20260904075438 23 142 0.0 0.0 0.00 0.10 0.00 84 1012.7
20260904074444 23 142 0.0 0.0 0.00 0.10 0.00 84 1012.6
20260904071148 23 157 1.6 4.8 0.00 0.10 0.00 83 1012.7
20260904070152 24 127 0.0 3.2 0.00 0.10 0.00 82 1012.8
20260904063958 24 150 0.0 4.8 0.00 0.10 0.00 80 1012.8
20260904062944 25 190 0.0 0.0 0.00 0.10 0.00 79 1012.9
20260904061943 25 190 0.0 0.0 0.00 0.10 0.00 79 1012.9
20260904060958 25 201 0.0 0.0 0.00 0.10 0.00 79 1013.0
20260904060021 25 209 0.0 1.6 0.00 0.10 0.00 79 1013.0
20260904055013 25 184 0.0 3.2 0.00 0.10 0.00 78 1012.9
20260904054007 25 171 3.2 12.9 0.00 0.10 0.00 78 1012.8
20260904052937 25 162 4.8 12.9 0.00 0.10 0.00 78 1012.6
20260904050826 25 175 6.4 12.9 0.00 0.05 0.05 78 1012.7
20260904045838 25 175 4.8 11.3 0.00 0.05 0.05 78 1012.6
20260904044821 26 185 6.4 11.3 0.00 0.05 0.05 78 1012.5
20260904043821 26 182 4.8 9.7 0.00 0.05 0.05 78 1012.7
20260904042818 26 173 4.8 11.3 0.00 0.05 0.05 78 1012.6
20260904041757 26 186 4.8 16.1 0.00 0.05 0.05 78 1012.7
20260904035635 26 170 6.4 11.3 0.00 0.05 0.05 79 1012.6